Mount Carmel, IL

2:58 PM CST on December 11, 2019 (GMT -0600)
Mount Carmel Municipal

Weather History for KAJG - October, 2019

Change the Weather History Date:

Tuesday, October 8, 2019

  Actual Average (WUND) Record (WUND)
Temperature  
Mean Temperature 56 °F -  
Max Temperature 74 °F - - (-1)
Min Temperature 40 °F - - (-1)
Degree Days  
Heating Degree Days 8    
Growing Degree Days 6 (Base 50)    
Moisture  
Dew Point 42 °F    
Average Humidity 69    
Maximum Humidity 97    
Minimum Humidity 26    
Precipitation  
Precipitation 0.00 in - - ()
Sea Level Pressure  
Sea Level Pressure 30.18 in    
Wind  
Wind Speed 5 mph (East)    
Max Wind Speed 12 mph    
Max Gust Speed 17 mph    
Visibility 10 miles    
Events      
Averages and records for this station are not official NWS values.
T = Trace of Precipitation, MM = Missing Value Source: NWS Daily Summary

Daily Weather History Graph

Daily Weather History Graph

Search for Another Location

Airport or City:

Astronomy

Oct. 08, 2019 Rise Set
Actual Time 6:53 AM CDT 6:23 PM CDT
Civil Twilight 6:26 AM CDT 6:49 PM CDT
Nautical Twilight 5:55 AM CDT 7:20 PM CDT
Astronomical Twilight 5:24 AM CDT 7:51 PM CDT
Moon 4:17 PM CDT (10/8) 1:46 AM CDT (10/8)
Length of Visible Light 12h 23m
Length of Day
11h 30m
Waxing Gibbous, 78% of the Moon is Illuminated
Oct 8
Waxing Gibbous
Oct 13
Full
Oct 21
Last Quarter
Oct 27
New
Nov 4
First Quarter

Hourly Weather History & Observations

Time (CDT) Temp. Dew Point Humidity Pressure Visibility Wind Dir Wind Speed Gust Speed Precip Events Conditions
12:15 AM 44.8 °F 43.3 °F 95% 30.21 in 10.0 mi Calm Calm - N/A   Clear
12:35 AM 45.1 °F 44.1 °F 96% 30.20 in 10.0 mi North - - N/A   Clear
12:55 AM 45.7 °F 44.6 °F 96% 30.20 in 10.0 mi North - - N/A   Clear
1:15 AM 45.5 °F 44.2 °F 95% 30.21 in 10.0 mi Calm Calm - N/A   Clear
1:35 AM 43.5 °F 42.1 °F 95% 30.21 in 10.0 mi North - - N/A   Clear
1:55 AM 44.8 °F 43.5 °F 95% 30.21 in 10.0 mi North - - N/A   Clear
2:15 AM 44.2 °F 43.2 °F 96% 30.21 in 10.0 mi North - - N/A   Clear
2:35 AM 43.9 °F 43.0 °F 97% 30.20 in 10.0 mi North - - N/A   Clear
2:55 AM 43.2 °F 41.5 °F 94% 30.20 in 7.0 mi Calm Calm - N/A   Clear
3:15 AM 43.7 °F 42.8 °F 97% 30.20 in 10.0 mi North - - N/A   Clear
3:35 AM 42.3 °F 41.2 °F 96% 30.20 in 10.0 mi North - - N/A   Clear
3:55 AM 42.4 °F 41.5 °F 97% 30.20 in 4.0 mi North - - N/A   Clear
4:15 AM 43.2 °F 42.4 °F 97% 30.20 in 1.0 mi North - - N/A   Mist
4:35 AM 42.1 °F 41.2 °F 97% 30.21 in 10.0 mi Calm Calm - N/A   Clear
4:55 AM 42.1 °F 40.8 °F 95% 30.20 in 10.0 mi North - - N/A   Clear
5:15 AM 42.4 °F 41.2 °F 95% 30.21 in 10.0 mi North - - N/A   Clear
5:35 AM 42.6 °F 41.0 °F 94% 30.22 in 10.0 mi North - - N/A   Clear
5:55 AM 41.2 °F 40.1 °F 96% 30.22 in 10.0 mi North - - N/A   Clear
6:15 AM 41.9 °F 41.0 °F 97% 30.22 in 10.0 mi North - - N/A   Clear
6:35 AM 41.7 °F 40.8 °F 97% 30.22 in 10.0 mi North - - N/A   Clear
6:55 AM 40.8 °F 39.9 °F 97% 30.22 in 10.0 mi North - - N/A   Clear
7:15 AM 41.2 °F 40.3 °F 97% 30.22 in 10.0 mi North - - N/A   Clear
7:35 AM 41.5 °F 40.8 °F 97% 30.22 in 10.0 mi North - - N/A   Clear
7:55 AM 45.5 °F 44.6 °F 97% 30.22 in 10.0 mi North - - N/A   Clear
8:15 AM 48.2 °F 46.2 °F 93% 30.23 in 10.0 mi North - - N/A   Clear
8:35 AM 51.3 °F 48.6 °F 90% 30.23 in 10.0 mi North - - N/A   Clear
8:55 AM 54.1 °F 50.9 °F 89% 30.23 in 10.0 mi North - - N/A   Clear
9:15 AM 58.3 °F 52.2 °F 80% 30.24 in 10.0 mi North - - N/A   Clear
9:35 AM 60.8 °F 52.7 °F 75% 30.24 in 10.0 mi North - - N/A   Clear
9:55 AM 64.0 °F 49.8 °F 60% 30.24 in 10.0 mi North - - N/A   Clear
10:15 AM 66.9 °F 46.0 °F 47% 30.24 in 10.0 mi ESE 5.8 mph - N/A   Clear
10:35 AM 68.0 °F 42.1 °F 39% 30.24 in 10.0 mi North - - N/A   Clear
10:55 AM 69.1 °F 43.2 °F 39% 30.23 in 10.0 mi ESE 9.2 mph - N/A   Clear
11:15 AM 69.3 °F 40.8 °F 36% 30.23 in 10.0 mi ENE 8.1 mph - N/A   Clear
11:35 AM 70.5 °F 39.2 °F 32% 30.22 in 10.0 mi East 11.5 mph - N/A   Clear
11:55 AM 71.4 °F 39.0 °F 31% 30.22 in 10.0 mi ESE 10.4 mph 17.3 mph N/A   Clear
12:15 PM 71.6 °F 38.3 °F 30% 30.21 in 10.0 mi ESE 8.1 mph 17.3 mph N/A   Clear
12:35 PM 72.1 °F 38.3 °F 29% 30.19 in 10.0 mi East 11.5 mph 16.1 mph N/A   Clear
12:55 PM 72.3 °F 39.2 °F 30% 30.19 in 10.0 mi East 9.2 mph 17.3 mph N/A   Clear
1:15 PM 72.7 °F 38.5 °F 29% 30.17 in 10.0 mi ESE 10.4 mph - N/A   Clear
1:35 PM 73.2 °F 38.1 °F 28% 30.17 in 10.0 mi East 11.5 mph - N/A   Clear
1:55 PM 73.2 °F 37.9 °F 28% 30.15 in 10.0 mi East 10.4 mph - N/A   Clear
2:35 PM 73.4 °F 37.4 °F 27% 30.14 in 10.0 mi ENE 5.8 mph 16.1 mph N/A   Clear
2:55 PM 73.2 °F 37.2 °F 27% 30.14 in 4.0 mi North - - N/A   Haze
3:15 PM 73.2 °F 36.7 °F 26% 30.14 in 10.0 mi East 5.8 mph - N/A   Clear
3:35 PM 73.0 °F 36.9 °F 27% 30.13 in 10.0 mi ENE 6.9 mph 16.1 mph N/A   Clear
3:55 PM 73.6 °F 37.2 °F 27% 30.13 in 10.0 mi ENE 9.2 mph - N/A   Clear
4:15 PM 73.4 °F 36.9 °F 26% 30.13 in 10.0 mi ENE 10.4 mph - N/A   Clear
4:35 PM 73.2 °F 36.5 °F 26% 30.12 in 10.0 mi East 8.1 mph - N/A   Clear
4:55 PM 72.5 °F 37.4 °F 28% 30.12 in 10.0 mi East 6.9 mph - N/A   Clear
5:15 PM 72.3 °F 37.8 °F 28% 30.12 in 10.0 mi North - - N/A   Clear
5:35 PM 71.1 °F 38.7 °F 31% 30.12 in 10.0 mi North - - N/A   Clear
5:55 PM 69.8 °F 40.6 °F 35% 30.12 in 10.0 mi North - - N/A   Clear
6:15 PM 67.1 °F 41.7 °F 40% 30.12 in 10.0 mi North - - N/A   Clear
6:35 PM 64.9 °F 42.4 °F 44% 30.12 in 7.0 mi North - - N/A   Clear
6:55 PM 58.3 °F 44.4 °F 60% 30.12 in 10.0 mi North - - N/A   Clear
7:15 PM 57.9 °F 45.1 °F 62% 30.13 in 10.0 mi North - - N/A   Clear
7:35 PM 56.7 °F 45.1 °F 65% 30.13 in 10.0 mi North - - N/A   Clear
7:55 PM 54.9 °F 46.6 °F 74% 30.13 in 10.0 mi Calm Calm - N/A   Clear
8:15 PM 52.5 °F 45.3 °F 76% 30.13 in 10.0 mi North - - N/A   Clear
8:35 PM 51.1 °F 45.7 °F 82% 30.13 in 10.0 mi North - - N/A   Clear
8:55 PM 51.1 °F 46.9 °F 86% 30.13 in 10.0 mi Calm Calm - N/A   Clear
9:15 PM 50.9 °F 46.4 °F 85% 30.13 in 10.0 mi Calm Calm - N/A   Clear
9:35 PM 50.4 °F 46.2 °F 86% 30.13 in 10.0 mi North - - N/A   Clear
9:55 PM 49.6 °F 45.5 °F 86% 30.13 in 10.0 mi North - - N/A   Clear
10:15 PM 48.2 °F 45.5 °F 90% 30.13 in 10.0 mi North - - N/A   Clear
10:35 PM 47.7 °F 45.5 °F 92% 30.13 in 10.0 mi North - - N/A   Clear
10:55 PM 47.3 °F 44.2 °F 89% 30.13 in 10.0 mi North - - N/A   Clear
11:15 PM 47.7 °F 45.5 °F 92% 30.13 in 10.0 mi North - - N/A   Clear
11:35 PM 46.6 °F 44.4 °F 92% 30.13 in 10.0 mi North - - N/A   Clear
11:55 PM 45.7 °F 41.9 °F 87% 30.12 in 10.0 mi Calm Calm - N/A   Clear